This is the latest recevied weather packets stored in our database for station/object K1JO. If no packets are shown the sender has not sent any weather packets the latest 10 day(s).
| Time | Temp. | Humidity | Pressure | Rain* | Wind** | Luminosity | Snow |
|---|---|---|---|---|---|---|---|
| 1777677045 | 10.56° C | 59% | 1004.5 hPa | 0 mm | - | 18 W/m² | - |
| 1777676744 | 10.56° C | 60% | 1004.4 hPa | 0 mm | - | 20 W/m² | - |
| 1777676441 | 11.11° C | 58% | 1004.4 hPa | 0 mm | - | 23 W/m² | - |
| 1777676138 | 11.11° C | 57% | 1004.2 hPa | 0 mm | - | 30 W/m² | - |
| 1777675834 | 11.11° C | 57% | 1004 hPa | 0 mm | - | 30 W/m² | - |
| 1777675532 | 11.11° C | 57% | 1004.1 hPa | 0 mm | - | 33 W/m² | - |
| 1777675229 | 11.67° C | 56% | 1003.9 hPa | 0 mm | - | 38 W/m² | - |
| 1777674925 | 11.67° C | 55% | 1004 hPa | 0 mm | - | 35 W/m² | - |
| 1777674622 | 11.67° C | 55% | 1003.8 hPa | 0 mm | - | 35 W/m² | - |
| 1777674321 | 11.67° C | 56% | 1003.8 hPa | 0 mm | - | 36 W/m² | - |
| 1777674016 | 12.22° C | 56% | 1003.6 hPa | 0 mm | - | 37 W/m² | - |
| 1777673711 | 12.22° C | 55% | 1003.6 hPa | 0 mm | - | 39 W/m² | - |
| 1777673409 | 12.22° C | 54% | 1003.4 hPa | 0 mm | - | 40 W/m² | - |
| 1777673107 | 12.78° C | 55% | 1003.5 hPa | 0 mm | - | 44 W/m² | - |
| 1777672803 | 12.78° C | 54% | 1003.4 hPa | 0 mm | - | 46 W/m² | - |
| 1777672499 | 13.89° C | 52% | 1003.3 hPa | 0 mm | - | 111 W/m² | - |
| 1777672195 | 13.89° C | 54% | 1003.2 hPa | 0 mm | - | 152 W/m² | - |
| 1777671890 | 13.33° C | 54% | 1003.2 hPa | 0 mm | - | 194 W/m² | - |
| 1777671586 | 12.78° C | 55% | 1003.3 hPa | 0 mm | - | 120 W/m² | - |
| 1777671283 | 13.33° C | 58% | 1003.2 hPa | 0 mm | - | 100 W/m² | - |
| 1777670978 | 13.33° C | 57% | 1003.1 hPa | 0 mm | - | 109 W/m² | - |
| 1777670676 | 13.33° C | 57% | 1003.1 hPa | 0 mm | - | 78 W/m² | - |
| 1777670372 | 13.89° C | 55% | 1003.1 hPa | 0 mm | - | 93 W/m² | - |
| 1777670070 | 13.89° C | 54% | 1003 hPa | 0 mm | - | 95 W/m² | - |
| 1777669767 | 13.89° C | 54% | 1003 hPa | 0 mm | - | 108 W/m² | - |
* Rain latest hour (hover to see other rain measurements)
** Current wind speed in m/s (hover to see current wind gust speed)